View from above orbital plane
|
View from above satellite
|
Ground track
|
The orbit data is extracted from the following two-line orbital elements,
1 16791U 86046A 21017.00640972 -.00000062 00000-0 -63851-5 0 9995
2 16791 82.4686 195.0709 0015039 313.0610 46.9357 15.05192783882668
Epoch (UTC): | 17 January 2021 00:09:13 |
Eccentricity: | 0.0015039 |
inclination: | 82.4686° |
perigee height: | 540 km |
apogee height: | 561 km |
right ascension of ascending node: | 195.0709° |
argument of perigee: | 313.0610° |
revolutions per day: | 15.05192783 |
mean anomaly at epoch: | 46.9357° |
orbit number at epoch: | 88266 |
The dashed part of the orbit path shows where the satellite is in the earth's shadow,
|
|